Voltar ao catálogo

AVUM R/B

AtivoMEO
NORAD 53109·ROCKET BODY·🇫🇷 France

Lançado Jul 13, 2022 de Guiana Space Centre

Loading…

Próximas Passagens (próximas 24 horas)

TLE

AtualizadoSource: Space-Track

Época: Sep 14, 2026, 01:15 UTC

1 53109U 22080E   26257.05265458 -.00000003  00000-0  00000-0 0  9991
2 53109  70.1212 267.3355 0009219 270.3545  89.6058  6.42583783 97773

Acompanhe AVUM R/B em tempo real com AllMySat

Download on the App Store